Wetbulb
59.95 59.93 60.04 60.30 60.45 60.52 60.26 60.40 60.38 60.45 60.54 60.32 60.26 59.97 59.97 60.31 59.50 63.35 62.37 66.92 67.04 72.88 74.17 69.50 73.71 74.11 74.21 72.05 73.28 73.18 66.56 59.90 60.52 58.74 59.70 63.27 62.15 64.16 67.01 66.85 68.64 68.93 67.04 69.40 73.58
59.78 59.88 60.05 60.18 60.41 60.17 60.21 60.11 60.09 60.16 59.92 59.86 59.73 59.75 60.01 60.07 61.35 60.38 69.91 71.53 71.68 73.81 70.99 71.19 70.80 71.35 69.74 69.41 69.68 67.87 63.79 61.65 63.54 63.90 62.62 63.54 62.60 62.19 62.06 64.77 67.99 68.90 70.57 70.62 73.21
59.93 60.08 60.04 60.07 60.19 59.99 59.93 59.91 59.76 59.61 59.59 59.52 59.34 59.54 59.83 60.43 60.21 61.72 70.09 71.11 72.02 74.69 69.97 71.12 69.49 69.01 66.76 67.86 67.12 66.44 62.81 64.23 64.74 65.48 65.64 64.25 62.50 63.19 61.67 61.39 65.66 68.30 70.08 70.72 71.85
60.05 59.91 59.99 59.90 60.03 59.86 59.78 59.63 59.33 59.04 58.86 58.56 58.53 59.14 59.74 62.12 53.63 67.37 71.64 71.63 71.68 71.77 70.24 68.43 66.00 64.43 63.76 61.46 64.32 61.70 64.00 64.56 63.95 65.14 64.96 63.57 64.84 61.59 62.45 62.66 66.24 69.80 71.99 71.39 71.35
59.78 59.63 59.52 59.60 59.61 59.56 59.40 59.16 58.90 58.48 58.40 58.16 58.47 59.40 61.56 58.77 57.66 71.13 73.18 72.08 68.17 71.72 67.64 65.59 62.58 63.47 61.14 60.81 60.33 59.03 60.08 61.58 62.71 63.32 63.83 64.68 62.86 61.63 62.10 64.55 65.75 68.79 71.35 71.68 71.81
59.46 59.02 59.00 59.12 59.35 59.09 58.79 58.40 58.15 57.84 57.86 57.93 59.02 59.29 59.16 53.97 61.20 69.19 69.65 68.89 68.62 70.18 65.71 65.52 63.08 64.03 62.00 60.31 58.70 59.10 58.37 58.31 59.07 59.62 62.36 62.12 62.33 62.49 62.87 64.85 64.84 68.32 70.20 71.89 72.04
58.95 58.48 58.39 58.62 58.75 58.73 58.45 57.89 57.55 57.49 57.96 59.02 60.13 61.02 58.05 55.95 64.05 67.40 67.83 68.69 68.21 66.68 64.08 64.79 64.83 62.79 62.03 59.03 60.77 60.16 56.85 58.12 58.63 58.14 57.41 60.58 59.63 60.40 63.38 64.26 63.86 67.26 69.59 71.45 72.19
58.34 57.93 57.92 57.88 58.12 57.99 57.54 56.90 57.02 57.71 60.02 60.81 60.75 61.81 56.64 60.03 61.13 61.82 65.49 66.38 68.27 67.16 65.77 65.57 65.22 62.88 60.64 60.51 58.95 56.96 56.79 52.66 57.00 58.78 57.94 57.77 55.58 60.95 63.57 63.38 63.49 64.48 66.11 68.34 70.98
58.14 57.44 57.49 57.68 57.33 57.13 56.26 55.89 56.71 59.34 60.70 59.80 62.67 62.17 55.57 57.94 57.48 60.13 60.76 58.60 60.68 61.35 60.37 60.95 60.50 57.88 56.87 53.92 52.73 54.58 51.19 52.36 54.04 58.23 57.86 57.02 55.61 60.37 62.98 62.70 61.67 62.55 62.96 62.90 66.13
57.67 57.53 57.13 57.04 56.56 55.92 55.27 55.59 60.45 59.15 61.51 63.22 62.09 57.57 58.18 55.68 57.77 58.88 60.92 59.53 57.31 57.77 57.66 57.78 56.59 54.79 54.54 52.90 47.84 50.55 51.76 52.96 53.02 56.03 56.58 55.73 55.75 58.04 60.58 61.06 60.93 61.44 62.50 63.17 63.09
57.32 57.12 56.18 56.16 55.81 55.25 56.43 60.73 57.47 58.19 58.12 55.25 55.51 55.18 56.02 58.23 59.16 57.75 59.25 58.21 57.53 55.74 54.07 57.63 53.89 50.76 52.66 54.62 54.50 53.70 52.43 51.42 53.63 56.45 55.60 55.31 55.91 57.33 58.97 59.06 59.16 60.47 62.12 62.59 63.58
56.74 55.86 55.80 55.91 55.41 54.35 57.26 54.71 53.11 54.61 52.94 56.36 55.74 56.01 57.35 57.27 55.08 56.98 59.26 55.29 54.93 52.04 54.57 53.53 51.15 54.96 55.63 54.79 53.23 52.81 51.52 51.60 54.13 55.40 54.59 54.17 54.75 57.52 58.81 58.58 58.88 58.79 59.64 61.34 62.94
55.88 55.59 55.71 55.20 53.98 59.88 56.36 53.73 56.76 57.72 53.39 55.11 56.11 55.62 55.98 56.65 54.62 55.45 57.39 56.38 54.40 53.07 53.24 51.46 52.70 54.43 52.90 52.14 51.27 51.75 50.66 51.12 51.11 53.74 54.89 54.08 52.88 55.67 57.80 58.76 59.54 59.90 60.37 60.56 62.08
55.50 55.47 55.28 53.41 55.44 58.91 55.89 56.34 57.93 57.80 51.42 52.35 53.40 55.62 56.74 56.75 53.76 57.77 58.23 55.98 54.32 52.26 53.12 52.69 54.70 52.67 52.02 51.09 52.02 50.15 53.69 52.83 51.90 51.01 47.74 54.08 47.19 54.04 56.41 57.14 58.37 58.88 59.43 59.83 61.28
55.53 55.53 54.80 52.44 57.51 57.46 56.91 57.72 58.53 57.21 46.34 52.25 54.00 58.69 56.94 54.46 54.97 55.74 58.51 56.27 52.63 52.97 53.19 51.76 51.81 51.59 50.78 51.62 53.07 50.74 53.28 51.98 52.06 51.09 50.91 50.76 48.61 52.35 55.79 55.82 56.87 57.93 59.45 60.41 61.89
55.37 55.00 54.06 58.37 59.97 58.57 58.24 58.38 57.51 49.62 44.94 50.30 52.91 52.81 53.45 54.28 54.15 55.58 55.98 57.02 56.91 53.35 53.93 53.00 55.71 53.85 52.33 53.30 53.86 54.27 52.56 52.75 52.74 50.66 45.62 50.42 49.83 50.12 52.52 54.60 57.32 58.40 59.45 60.35 61.77
54.94 53.55 53.32 57.82 57.75 59.50 58.96 57.07 50.22 47.15 51.38 49.55 50.15 51.74 51.64 51.33 52.02 52.50 53.17 53.50 52.17 49.79 50.48 52.46 53.08 53.54 53.44 51.07 53.11 52.02 50.30 45.70 44.67 44.69 43.47 49.95 48.03 50.73 55.02 56.77 57.56 57.87 59.35 60.84 61.88
53.46 52.18 57.24 58.40 60.50 59.94 58.05 52.99 47.08 49.79 48.88 52.13 51.33 51.55 49.19 50.88 51.55 51.20 51.83 51.59 54.72 53.34 51.01 49.76 48.53 51.69 53.33 51.98 50.81 51.58 51.06 46.44 41.17 41.58 44.90 50.22 46.77 50.77 56.30 58.26 58.47 58.87 59.91 61.16 61.43
51.52 61.55 59.05 60.62 61.10 60.27 54.57 48.59 50.18 50.51 51.33 50.37 51.35 49.03 49.66 50.00 49.39 50.29 51.26 50.87 52.74 53.85 50.22 49.26 49.95 54.92 55.21 53.77 53.77 51.65 49.39 53.17 48.08 48.81 45.75 46.72 51.77 54.49 56.57 57.31 57.82 59.21 61.02 65.14 68.91
56.01 58.75 58.76 60.07 60.89 58.86 52.39 47.64 50.53 52.73 52.40 52.01 48.65 49.94 47.91 49.34 48.93 50.04 50.12 52.58 51.12 53.76 55.31 52.61 48.38 53.80 54.82 54.97 54.62 52.72 53.66 47.94 49.18 40.31 41.74 46.51 46.37 48.59 54.19 53.15 57.12 57.82 62.75 67.85 70.20
56.25 56.74 58.94 59.98 59.61 55.04 49.90 52.07 51.81 54.25 54.05 51.74 50.53 49.61 49.98 48.76 49.31 49.24 49.24 51.56 53.34 53.36 54.87 53.63 52.06 51.75 54.33 53.12 51.91 51.28 50.85 51.82 50.49 48.47 44.33 41.20 46.16 53.50 55.01 56.98 58.25 59.42 66.15 69.63 71.24
57.56 54.43 59.30 59.98 52.53 54.95 51.83 52.84 47.06 53.01 55.44 53.67 53.02 52.09 50.76 50.64 49.93 50.11 49.18 50.93 54.70 54.29 51.18 54.48 52.37 48.77 49.63 54.21 56.42 54.74 53.18 52.84 47.29 47.27 49.15 48.00 48.24 55.57 56.51 56.52 61.41 64.62 67.58 71.29 72.13
55.66 57.00 59.60 57.56 49.85 52.73 54.59 51.86 52.30 52.30 53.32 53.69 52.74 53.28 54.13 52.00 49.12 51.45 51.42 53.88 54.53 53.72 52.72 54.29 50.64 46.46 48.49 52.11 54.67 51.70 52.22 50.28 53.40 53.39 49.77 44.98 48.60 56.85 56.20 62.07 66.14 66.63 68.46 69.08 70.42
55.11 53.25 55.66 55.32 55.39 52.82 52.50 51.68 51.25 53.61 52.85 53.91 54.06 55.22 53.79 52.65 54.62 51.72 52.25 54.11 54.86 54.34 57.87 56.91 51.03 49.00 45.76 49.10 51.89 50.26 50.99 51.76 51.84 49.28 49.86 48.83 50.81 52.86 56.71 56.99 63.86 65.98 68.56 68.36 69.53
55.80 54.44 54.58 51.91 53.99 52.55 52.83 52.24 50.32 50.60 53.82 54.64 53.43 53.27 52.74 50.66 51.54 51.27 53.16 53.72 54.49 60.03 55.70 54.69 50.02 51.53 51.44 51.41 51.61 51.10 50.71 51.05 50.56 51.34 48.93 51.41 50.40 51.79 57.56 61.51 64.57 67.67 68.04 67.05 67.87
54.02 54.52 57.18 53.23 53.56 51.86 48.76 50.70 49.57 50.77 51.55 51.73 52.06 52.92 52.89 51.04 51.97 50.53 52.96 53.23 52.21 54.69 54.12 54.65 49.61 51.61 49.45 51.19 50.81 49.49 50.87 51.12 51.37 51.74 51.78 52.43 52.74 60.69 63.68 64.92 64.66 64.86 65.08 65.02 65.62
60.40 57.20 53.53 51.31 52.56 50.88 50.85 51.15 50.25 52.02 52.28 53.33 52.99 52.94 51.94 52.93 55.30 55.47 54.42 54.28 54.92 53.49 52.59 52.37 50.61 49.15 46.05 49.98 49.14 46.83 50.52 51.66 52.63 53.13 54.40 51.73 57.06 61.59 61.94 61.74 62.41 62.67 63.67 64.15 65.71
MSLP
1018.11 1017.62 1017.09 1016.65 1016.24 1015.83 1015.37 1014.81 1014.34 1013.88 1013.41 1012.93 1012.49 1012.33 1012.04 1011.65 1011.14 1010.37 1007.50 1005.92 1005.98 1006.74 1006.98 1006.50 1005.87 1005.24 1004.80 1003.88 1003.00 1002.33 1000.29 997.87 996.97 996.32 996.60 996.47 996.76 996.81 997.53 997.90 999.14 999.73 1000.06 1001.23 1003.24
1018.25 1017.75 1017.21 1016.72 1016.22 1015.72 1015.32 1014.88 1014.36 1013.76 1013.22 1012.88 1012.34 1011.85 1011.76 1011.51 1009.86 1007.22 1005.71 1005.74 1006.27 1006.53 1006.18 1005.08 1004.72 1004.51 1003.74 1002.84 1001.97 1001.18 999.21 997.75 998.23 996.70 996.88 996.96 997.02 996.82 996.78 997.13 998.56 999.50 1000.20 1001.17 1002.86
1018.25 1017.72 1017.21 1016.65 1016.06 1015.49 1014.99 1014.58 1014.13 1013.63 1013.11 1012.65 1012.17 1011.69 1011.47 1011.13 1008.16 1004.84 1005.92 1005.94 1006.26 1006.35 1004.92 1004.49 1003.94 1003.81 1002.98 1001.80 1000.84 1000.47 999.34 998.02 997.34 997.40 997.58 997.34 997.10 996.99 996.47 996.44 996.77 998.35 999.88 1000.88 1002.17
1018.36 1017.81 1017.28 1016.66 1016.01 1015.42 1014.82 1014.22 1013.57 1013.10 1012.78 1012.46 1011.94 1011.51 1011.32 1009.95 1006.20 1005.13 1005.80 1005.96 1006.27 1005.88 1004.63 1004.15 1003.65 1003.05 1002.34 1001.13 1000.48 1000.17 999.53 998.98 998.23 997.75 997.68 997.40 997.13 997.06 996.59 996.40 996.45 997.22 998.96 1000.15 1001.30
1018.23 1017.70 1017.11 1016.50 1015.81 1015.17 1014.53 1013.91 1013.26 1012.71 1012.29 1012.09 1011.66 1011.41 1010.93 1008.03 1004.91 1005.43 1005.91 1006.34 1006.37 1005.90 1004.26 1003.68 1003.23 1002.60 1001.82 1000.85 1000.24 999.81 999.50 999.11 998.55 998.05 997.61 997.37 997.15 996.82 996.56 996.15 996.36 997.13 998.13 999.75 1000.77
1018.32 1017.77 1017.14 1016.46 1015.69 1014.99 1014.30 1013.51 1012.83 1012.22 1011.57 1011.47 1011.20 1011.27 1009.61 1005.97 1004.17 1004.53 1004.92 1006.01 1005.15 1005.02 1003.90 1003.42 1002.75 1002.26 1001.78 1001.10 1000.56 1000.00 999.63 998.97 998.57 998.05 997.58 997.31 996.77 996.53 996.06 995.93 996.30 997.32 997.84 999.31 1000.08
1018.38 1017.79 1017.07 1016.21 1015.26 1014.42 1013.62 1012.80 1012.13 1011.55 1011.11 1010.76 1010.64 1010.21 1007.16 1004.51 1004.11 1004.17 1004.40 1004.76 1004.41 1004.05 1003.33 1003.02 1002.71 1002.38 1002.17 1001.43 1000.88 1000.25 999.71 998.95 998.12 997.45 996.96 996.89 996.26 995.78 995.71 995.60 996.24 996.92 997.86 998.60 999.38
1018.00 1017.34 1016.59 1015.80 1014.92 1014.13 1013.28 1012.41 1011.66 1011.01 1010.56 1010.16 1010.20 1009.05 1004.98 1004.09 1004.07 1004.19 1003.71 1003.68 1003.91 1003.70 1003.28 1002.88 1002.93 1002.77 1002.58 1002.09 1001.31 1000.55 999.74 998.13 997.02 996.31 995.91 996.14 995.27 995.44 995.08 994.72 995.61 996.21 996.84 997.72 998.48
1017.80 1017.20 1016.45 1015.70 1014.66 1013.72 1012.78 1011.86 1011.12 1010.64 1010.34 1010.17 1009.55 1007.27 1003.78 1004.97 1004.12 1003.45 1003.60 1003.41 1003.34 1003.51 1003.60 1003.57 1003.55 1002.96 1002.54 1001.71 1000.73 999.91 998.41 997.32 996.37 995.79 995.36 995.23 995.09 995.29 994.90 994.58 995.18 995.89 996.32 996.55 996.97
1017.78 1016.99 1016.20 1015.47 1014.45 1013.26 1012.13 1010.90 1010.36 1010.40 1009.96 1008.71 1007.51 1006.15 1004.11 1003.34 1003.47 1003.45 1003.33 1003.38 1002.86 1002.80 1002.95 1003.27 1003.08 1002.15 1001.42 1000.80 999.22 998.44 997.39 996.43 995.70 995.77 995.27 994.89 995.00 994.99 994.95 994.76 994.92 995.31 995.35 995.66 995.86
1017.64 1017.06 1016.38 1015.55 1014.28 1012.74 1011.86 1008.88 1009.55 1009.06 1006.86 1005.89 1004.95 1004.27 1003.46 1003.50 1003.29 1003.14 1003.03 1003.15 1003.14 1002.83 1002.02 1001.72 1001.49 1000.45 999.96 999.43 999.10 998.71 998.03 997.28 996.44 995.77 995.33 995.12 994.84 994.73 994.79 994.57 994.53 994.66 994.77 994.77 994.84
1017.84 1017.19 1016.35 1015.19 1014.03 1012.60 1011.88 1009.43 1010.41 1010.30 1007.24 1005.06 1004.66 1004.05 1003.64 1003.70 1002.54 1002.41 1002.82 1002.58 1002.18 1001.90 1001.14 1000.84 999.66 999.51 999.36 999.25 998.80 998.33 997.77 997.04 996.84 996.66 996.12 995.45 994.91 994.91 994.55 994.31 994.30 994.42 994.02 993.74 993.76
1017.90 1017.09 1016.17 1014.94 1013.70 1012.02 1010.70 1010.65 1010.39 1009.80 1007.39 1004.22 1003.69 1003.19 1002.85 1003.11 1002.00 1001.59 1002.20 1001.56 1001.25 1000.71 1000.20 999.54 998.71 998.35 998.69 998.64 998.41 997.91 997.65 997.28 996.78 996.60 995.93 995.58 994.72 994.65 994.28 994.00 993.70 993.39 993.29 992.95 992.93
1017.69 1017.05 1016.22 1014.83 1013.77 1011.22 1010.13 1010.53 1010.04 1009.77 1006.35 1003.52 1002.99 1002.44 1002.45 1002.07 1001.70 1001.88 1001.81 1001.80 1000.82 1000.18 999.73 998.95 998.39 998.50 998.54 997.99 998.07 997.56 997.43 997.15 996.78 996.51 995.68 995.80 994.03 993.78 993.48 992.76 992.30 992.71 992.29 992.09 992.18
1017.30 1016.70 1016.27 1016.26 1014.14 1010.65 1010.81 1010.33 1010.13 1009.31 1004.61 1003.22 1002.03 1002.45 1001.95 1001.74 1001.32 1001.29 1001.86 1001.59 1000.84 999.92 999.90 998.61 998.30 998.22 998.03 997.77 997.75 997.49 997.66 997.54 997.20 996.64 996.04 995.68 994.88 993.52 992.99 992.90 991.94 991.98 991.53 991.07 990.92
1017.10 1016.72 1016.35 1014.34 1013.09 1011.24 1010.80 1010.30 1009.69 1007.24 1003.23 1002.55 1002.18 1001.62 1001.03 1001.06 1000.93 1000.92 1001.13 1001.64 1000.88 1000.28 999.58 998.84 998.41 998.20 998.20 998.04 997.91 997.89 997.78 997.41 997.18 996.60 996.35 996.47 996.56 995.55 993.73 992.60 992.01 991.10 990.82 990.49 990.28
1016.96 1016.30 1016.24 1013.84 1011.18 1011.05 1010.71 1009.37 1006.95 1004.23 1003.43 1002.28 1001.67 1001.52 1001.00 1000.51 1000.52 1000.81 1000.35 1000.18 999.97 999.79 998.35 998.05 996.84 997.31 997.92 997.89 997.65 997.66 997.19 996.30 996.03 996.16 996.60 997.15 997.45 996.57 995.15 992.93 992.25 991.10 990.38 990.08 989.96
1016.55 1015.66 1013.94 1012.64 1011.79 1011.09 1010.04 1008.00 1005.23 1003.39 1002.90 1002.85 1002.48 1001.76 1001.16 1000.70 1000.44 1000.66 1000.47 999.79 1000.22 1000.55 999.17 997.73 997.11 997.20 997.48 997.56 997.24 996.88 996.72 996.37 996.07 996.41 996.85 997.94 997.06 995.93 995.96 995.00 992.83 991.74 991.35 991.26 991.09
1015.84 1012.39 1011.66 1010.86 1011.39 1011.11 1009.34 1006.19 1003.47 1003.47 1003.85 1003.22 1002.40 1001.64 1000.58 1001.20 1001.54 1000.71 1000.21 1000.24 1000.64 1001.05 1000.64 999.36 997.87 997.75 997.10 997.27 997.11 996.34 996.81 996.69 996.83 996.91 996.35 997.18 996.98 996.11 996.12 994.10 992.21 992.06 992.19 992.35 992.76
1015.67 1012.01 1009.91 1010.63 1010.93 1010.27 1008.36 1005.41 1004.19 1004.55 1004.52 1003.82 1002.64 1002.41 1001.34 1001.12 1001.45 1000.71 1000.34 1000.64 1001.12 1001.49 1001.46 1000.32 999.30 998.35 997.10 997.16 996.79 996.73 996.63 996.68 996.72 997.49 997.08 996.14 997.15 996.08 995.15 995.07 994.52 994.32 992.72 993.74 994.39
1015.29 1010.80 1009.99 1010.10 1010.29 1009.10 1006.59 1004.40 1004.51 1004.77 1004.98 1004.12 1003.19 1002.91 1002.41 1002.24 1002.07 1001.35 1000.90 1001.06 1001.61 1002.09 1001.78 1000.79 1000.01 998.93 997.84 996.93 996.90 997.05 997.34 996.85 996.61 997.10 996.60 997.11 995.66 996.62 995.99 995.41 993.76 994.34 990.92 994.54 995.44
1013.74 1010.09 1009.66 1009.80 1008.95 1006.75 1005.42 1004.62 1005.62 1004.78 1004.98 1004.48 1004.42 1003.68 1003.29 1003.00 1002.69 1001.98 1001.61 1001.60 1002.40 1002.91 1002.12 1001.34 1000.99 999.87 998.62 997.71 997.68 997.41 997.98 997.56 997.05 997.72 996.96 997.65 995.01 994.60 995.33 995.14 993.88 994.45 995.31 996.25 996.73
1013.09 1010.05 1008.96 1009.35 1007.39 1005.37 1004.86 1005.61 1005.48 1004.88 1004.66 1004.28 1004.09 1004.19 1003.92 1003.76 1003.53 1002.70 1002.43 1002.58 1002.95 1003.20 1002.92 1003.11 1001.95 1000.38 998.55 997.40 998.58 999.05 1000.35 1001.41 998.07 997.77 997.39 998.54 997.84 997.65 996.12 995.07 996.17 996.34 996.93 998.09 998.09
1013.73 1009.49 1008.03 1008.43 1007.46 1006.79 1005.47 1005.19 1004.87 1005.27 1005.26 1004.91 1004.62 1004.38 1004.42 1003.99 1003.74 1003.41 1003.13 1003.02 1003.07 1003.26 1004.00 1004.04 1002.91 1001.89 1000.21 998.58 999.45 999.86 999.77 999.71 998.97 997.60 996.98 997.02 997.94 998.57 999.07 997.73 997.35 998.40 998.43 999.15 999.24
1013.53 1009.85 1009.46 1007.37 1006.53 1006.64 1006.28 1005.83 1005.11 1004.73 1005.22 1005.06 1004.93 1004.58 1004.37 1004.12 1003.92 1003.43 1003.08 1002.72 1003.11 1003.41 1003.51 1003.10 1002.68 1002.22 1001.37 1000.29 999.25 998.34 998.10 997.68 997.21 997.05 996.90 996.95 997.11 999.52 1001.09 999.11 998.87 998.64 999.12 999.82 999.81
1013.32 1011.15 1009.94 1009.01 1008.29 1007.85 1006.87 1006.24 1005.66 1005.13 1005.12 1004.92 1004.80 1004.59 1004.60 1004.76 1004.46 1004.00 1003.81 1003.89 1003.87 1003.90 1003.55 1003.31 1003.01 1002.81 1001.68 1000.66 999.61 998.52 997.86 997.21 996.95 996.91 996.74 996.91 997.30 998.78 1000.10 1000.17 999.79 999.44 1000.03 1000.43 1000.47
1013.48 1013.09 1012.10 1009.57 1008.24 1007.70 1006.47 1005.95 1005.89 1005.74 1005.35 1005.53 1005.06 1005.10 1005.10 1004.91 1005.32 1005.20 1005.01 1004.53 1004.06 1003.72 1003.46 1003.52 1003.34 1003.01 1001.52 1000.70 999.56 997.85 996.79 996.48 996.84 997.20 997.64 997.47 998.83 1000.44 1001.00 1001.09 1001.35 1000.93 1000.54 1000.83 1000.82
Wind_Speed
19 20 19 19 19 19 19 19 19 19 19 19 17 13 12 12 12 9 12 3 5 15 8 18 18 13 14 16 16 15 15 6 22 1 6 9 10 6 7 5 3 5 7 15 20
19 19 19 19 20 20 19 18 18 19 19 17 17 16 12 10 14 20 4 12 14 15 18 18 17 15 14 13 13 12 16 6 11 10 8 9 9 9 6 8 10 8 11 18 22
19 19 20 21 21 21 21 20 19 18 18 17 17 16 14 14 14 2 6 11 14 17 19 16 12 13 17 17 14 14 17 20 19 12 12 14 12 11 8 8 9 15 15 21 22
18 19 20 21 22 22 22 22 22 20 18 17 17 16 12 10 7 9 7 10 15 20 17 15 12 16 18 17 17 19 18 20 19 17 14 15 12 15 10 10 7 13 20 22 23
19 20 22 22 23 23 23 23 22 21 20 17 14 12 9 10 12 10 9 9 17 17 16 16 15 15 18 17 16 16 18 20 21 21 18 16 15 15 16 10 2 5 19 20 20
19 20 21 22 22 22 23 23 22 22 22 16 12 5 10 15 5 9 7 13 14 16 15 16 14 14 17 18 17 18 19 21 20 22 20 20 19 18 15 6 3 5 14 16 19
17 19 21 22 24 25 26 26 24 22 18 13 10 8 12 12 3 3 7 13 16 15 16 16 16 12 12 17 19 16 20 21 22 19 23 22 23 21 18 11 5 11 9 15 17
17 19 22 24 25 26 27 27 25 20 12 7 7 11 8 6 6 7 10 10 13 11 12 10 10 14 17 17 21 23 22 21 21 20 21 23 21 17 22 9 10 9 11 14 16
19 20 22 23 26 27 27 26 23 13 5 5 9 11 5 4 9 7 13 14 15 16 14 12 11 17 18 19 18 19 22 26 23 21 15 14 17 18 21 11 9 11 12 12 15
20 21 23 24 27 29 28 26 7 6 9 10 8 9 6 1 4 5 5 9 9 12 14 13 14 17 18 17 19 20 22 22 21 16 19 18 21 20 19 21 15 19 16 15 12
20 21 24 25 27 30 20 6 7 9 13 9 5 5 5 7 2 8 7 11 10 10 15 19 15 19 23 23 24 21 24 27 26 25 23 15 21 16 19 18 19 19 20 19 18
21 22 24 26 27 29 14 7 7 7 9 5 4 6 3 3 7 7 5 8 10 14 16 15 18 17 18 19 24 24 27 26 25 26 25 24 24 24 20 22 16 20 23 22 21
21 22 24 27 28 15 6 8 8 8 9 10 4 5 0 6 3 4 7 5 11 12 14 16 17 12 10 14 18 20 22 24 26 25 27 24 26 25 24 21 25 23 24 21 23
21 22 22 29 11 9 2 6 9 4 8 13 11 5 9 4 6 1 3 8 7 9 10 11 10 9 14 20 14 19 17 19 21 21 18 23 20 25 23 20 12 16 20 20 22
21 21 20 13 13 5 8 9 9 6 7 4 8 5 4 8 5 8 2 9 13 12 7 14 10 13 14 14 13 17 16 18 21 21 23 24 19 19 16 18 15 15 19 20 22
21 19 21 6 8 7 9 9 7 9 2 7 2 5 10 10 7 4 7 7 13 12 15 15 13 12 10 11 10 11 13 16 16 19 14 18 15 20 22 14 18 14 17 21 18
22 22 14 9 7 9 8 7 9 9 4 4 0 4 6 7 6 2 5 4 8 9 10 10 13 4 5 12 12 13 15 12 12 11 10 13 9 13 19 24 13 11 12 10 15
24 24 5 9 8 8 8 10 9 7 2 3 7 9 12 4 11 4 10 9 9 9 12 9 6 5 3 9 12 14 13 10 16 14 7 8 16 10 11 26 22 5 9 10 8
30 6 6 4 2 6 9 9 6 5 4 6 11 10 7 5 6 6 9 8 5 7 9 11 13 14 13 11 13 15 8 10 11 20 14 10 14 13 17 22 12 5 4 7 13
10 10 6 4 5 7 8 12 5 4 7 7 11 1 6 2 8 3 4 6 4 5 9 14 15 16 14 9 13 16 11 11 7 2 17 13 11 16 6 18 29 10 6 8 9
8 6 7 5 6 8 11 9 1 3 6 6 5 7 7 6 6 9 5 5 6 10 14 15 12 15 16 11 9 5 14 18 14 11 6 6 8 14 15 11 20 17 7 13 12
7 7 6 4 9 8 10 2 4 9 8 9 6 9 7 6 10 8 6 4 11 10 15 13 9 14 18 21 10 14 18 19 9 17 10 14 17 9 12 13 4 9 13 15 13
6 9 7 6 9 9 9 8 7 9 10 5 7 5 2 9 5 8 6 6 6 9 10 10 11 14 14 17 13 6 11 15 10 16 17 8 16 13 18 13 15 14 14 10 8
7 6 7 7 11 10 13 7 10 8 11 8 10 7 10 12 11 7 11 11 10 11 5 7 14 17 15 23 4 8 13 16 21 11 13 13 16 17 25 9 13 12 8 11 7
6 2 7 6 2 7 9 11 9 11 10 5 10 12 14 10 13 14 13 11 9 6 11 10 14 13 18 22 26 23 18 19 17 18 17 19 18 13 9 5 6 10 11 9 6
7 5 2 10 8 12 8 11 14 14 5 12 11 16 3 11 13 14 13 12 14 14 14 13 13 16 18 21 21 22 23 25 16 22 18 18 16 17 9 12 12 14 14 13 11
2 7 7 7 9 9 11 11 12 10 8 10 14 8 11 8 12 12 15 17 17 17 16 15 13 14 18 20 20 19 20 12 14 10 11 11 20 16 10 7 8 11 11 9 10
Wind_Direction
352 348 344 342 339 338 337 335 333 330 329 327 323 323 315 310 294 229 262 32 163 162 203 171 203 208 221 237 239 271 271 330 331 87 67 52 350 29 107 146 177 159 102 126 140
347 344 341 338 336 335 333 332 329 326 323 321 317 315 315 314 278 263 150 125 146 172 195 181 191 206 222 240 241 238 281 281 298 14 326 336 343 328 304 153 157 154 116 139 153
342 340 339 336 334 332 330 329 325 322 318 317 315 310 314 306 273 51 148 141 167 188 214 203 212 219 237 250 243 251 258 289 323 340 333 311 303 337 324 271 195 170 160 157 164
336 336 333 331 331 328 328 326 324 320 314 312 309 304 314 260 282 81 139 161 178 197 227 215 235 223 244 249 248 258 267 281 279 287 297 284 315 290 309 320 329 165 164 169 175
335 336 332 329 327 326 325 322 319 313 307 309 300 297 273 225 259 108 137 152 174 210 220 219 229 230 246 264 268 262 271 273 279 286 280 287 275 282 294 288 210 228 162 178 182
329 332 329 325 322 321 321 319 316 309 306 302 284 269 237 254 50 135 149 168 186 214 220 222 237 251 264 282 282 290 295 292 294 288 282 275 277 275 268 290 255 184 170 185 190
326 329 326 325 326 324 323 320 316 310 303 286 255 231 251 249 27 164 182 197 219 220 227 229 246 243 260 253 256 277 268 267 263 257 256 257 255 263 259 236 232 165 216 196 201
327 332 328 328 324 321 318 315 312 309 298 266 211 227 271 56 326 215 240 193 206 227 261 281 249 266 269 277 274 271 269 273 271 272 247 239 254 247 257 210 194 216 197 202 216
329 329 326 325 322 317 316 310 304 292 263 177 210 237 158 144 217 195 215 233 224 228 241 251 252 251 251 248 254 252 261 263 268 276 264 238 260 251 261 255 238 248 242 240 213
329 328 329 328 321 317 317 297 312 261 216 226 262 242 201 15 328 291 223 251 237 224 224 224 239 242 236 246 256 261 267 263 258 253 263 248 243 245 251 264 266 263 260 246 242
332 332 328 323 319 315 322 232 218 190 227 323 3 299 86 329 194 197 218 206 233 248 240 211 233 237 251 250 250 262 267 276 281 291 291 279 277 278 282 279 268 272 263 256 243
333 332 329 321 318 312 287 31 44 338 299 195 257 256 226 319 237 193 193 221 191 237 233 235 242 255 269 274 276 262 269 268 268 273 276 275 266 268 268 267 260 265 269 254 248
334 334 327 321 317 291 13 34 338 317 256 183 239 282 342 255 308 125 221 248 265 255 251 257 274 296 269 266 274 259 268 275 277 276 273 266 260 254 261 263 254 249 253 253 249
334 329 327 324 296 346 61 348 320 330 266 140 199 157 222 251 225 227 251 287 255 281 323 285 291 304 291 278 248 268 270 280 275 268 264 267 266 253 253 251 240 261 244 240 240
327 325 325 332 318 302 350 319 320 244 262 115 139 69 237 256 4 156 244 239 266 293 263 283 318 289 283 282 292 284 297 288 283 279 273 249 256 268 262 252 246 256 259 241 229
320 318 326 207 220 306 309 306 252 232 192 143 228 219 230 198 159 248 208 219 278 276 258 257 256 246 274 294 280 286 282 276 270 262 266 269 275 284 283 268 271 242 239 239 227
312 308 306 306 337 334 307 262 244 257 138 123 60 264 283 255 240 229 289 200 322 288 302 312 268 53 238 255 244 251 253 264 251 246 248 317 310 232 296 321 252 263 285 285 203
307 308 190 267 304 305 277 258 261 52 268 87 269 279 256 20 240 263 258 243 126 319 309 304 308 74 154 244 294 308 311 302 304 295 209 350 272 284 301 302 257 291 291 311 291
307 242 236 170 286 283 273 251 303 40 358 315 286 259 202 184 271 252 247 301 20 343 326 305 290 345 258 276 256 259 247 328 302 263 267 175 246 264 247 254 251 139 352 12 2
309 286 250 127 234 271 260 263 307 332 301 252 282 323 287 155 276 202 292 101 287 335 313 306 288 301 290 289 253 262 299 261 228 19 304 328 304 259 240 317 296 157 313 26 331
261 276 106 189 237 245 251 309 344 161 280 261 296 274 271 299 295 297 294 337 69 323 312 292 296 292 299 286 327 281 264 256 287 248 252 262 270 261 354 244 252 163 37 28 342
290 266 122 211 247 230 267 243 356 262 195 262 275 287 281 320 286 282 274 318 47 323 312 319 311 291 294 303 248 261 338 313 253 239 255 329 277 19 221 200 299 29 12 19 340
271 294 141 236 256 243 204 267 240 255 244 245 250 225 304 286 292 266 294 331 316 313 337 342 297 299 279 256 57 3 350 260 276 265 303 351 315 4 260 2 39 20 19 11 344
276 273 179 207 267 279 293 252 242 192 284 270 281 302 268 261 260 250 278 295 297 298 78 290 263 266 286 301 283 200 235 262 274 288 308 258 224 358 327 354 16 9 27 22 20
243 282 11 276 181 284 277 293 285 240 197 248 259 242 269 291 286 277 280 288 312 319 278 258 283 282 286 289 287 290 280 276 280 288 286 302 309 98 293 30 44 47 55 39 345
297 322 15 275 274 274 247 252 257 265 241 264 227 281 297 279 279 293 321 308 300 308 289 295 299 284 284 283 285 286 272 272 275 274 274 297 309 38 28 58 56 46 61 50 9
358 263 268 289 257 250 260 248 261 268 277 263 292 294 273 323 345 317 295 281 275 272 275 275 281 280 274 296 300 280 262 285 301 355 306 327 358 358 11 44 18 18 16 56 47